FENGYUN 1C DEB

Satellite information

Favourite Embed

Satellite Type and Status

DEBRISIN ORBIT

Key statistics

Satellite FENGYUN 1C DEB at a glance.

Uptime

9715

Days in orbit

Revolutions

≈ 14.6

Per day

Orbit

SSO

Sun Synchronous Orbit

Inclination

99.0

Latest

Satellite identification and parameters

Extended collection of information and parameters for FENGYUN 1C DEB.

Object identification

Identified? True

Debris? True

Object name: FENGYUN 1C DEB

International designator: 1999-025AFJ

Object number (NORAD): 30447

Object ID (CCSDS): 30447

Country: PEOPLES REPUBLIC OF CHINA (PRC)

Current information (Y/N): Y

RCS size: SMALL

Orbital parameters

Period: 98.863 minutes

Inclination: 98.9724 deg

SMA: 7082.414 km

Apoapsis: 746.812 km

Periapsis: 661.746 km

RAAN: 207.5899 deg

Eccentricy: 0.00600546

Argument of periapsis: 32.5558 deg

Mean anomaly: 120.8574 deg

Mean motion: 14.56568188 rev/day

Mean motion (dot): 0.00017466 rev/day2

B* drag term: 0.0038291859 1/REarth

Two-line elements (TLE)

Creation date: Dec. 12, 2025, 10:14 a.m.

Reference frame: TEME

Reference center: EARTH

Epoch: Dec. 12, 2025, 2:03 a.m. UTC

TLE line 0: 0 FENGYUN 1C DEB

TLE line 1: 1 30447U 99025AFJ 25346.08604251 .00017466 00000-0 38292-2 0 9999

TLE line 2: 2 30447 98.9724 207.5899 0060055 32.5558 120.8574 14.56568188980863

Live tracking on map

Real-time ground track for satellite FENGYUN 1C DEB.

In-orbit conjunctions

A list of the most updated potential collisions computed for object FENGYUN 1C DEB.

Target Orbit TCA Probability of collision Miss distance Type
CZ-2C R/B SSO 2025-04-07 23:09:15 0.0002243568 480.0 (m) ROCKET BODY
CZ-6A DEB LEO 2024-11-15 03:43:05 0.0001739356 624.0 (m) DEBRIS

Associated space launch

Chinese polar orbiting meteorological satellite

FENGYUN 1C DEB was lifted into orbit during the mission ‘Long March 4B | Feng Yun 1C’, on board a Long March 4B space rocket.

The launch took place on May 10, 1999, 1:33 a.m. from Launch Complex 7.

For more information about the launch, click the button.

Launch to space Long March 4B | Feng Yun 1C
Long March 4B | Feng Yun 1C

Agency: N/A

Status: Launch Successful

Launch date: May 10, 1999, 1:33 a.m. UTC

Rocket: Long March 4B

Launch pad: Launch Complex 7

Location: Taiyuan Satellite Launch Center, People's Republic of China

...

Latest news about this satellite

There are no fresh news available about this satellite. Check back as we update our databases every day.


Newsletter sign-up

Weekly statistics, charts and insights to help you stay on top of the space industry.